Regional Weather Roundup
Issued by NWS Cleveland, OH

Home | Current Version | Previous Version | Text Only | Print | Product List | Glossary Off
Versions: 1 2 3 4 5 6 7 8 9 10 11 12 13 14 15 16 17 18 19 20 21 22 23 24 25 26 27 28 29 30 31 32 33 34 35 36 37 38 39 40 41 42 43 44 45 46 47 48 49 50

000
ASUS41 KCLE 051010
RWRCLE
OHIO REGIONAL WEATHER ROUNDUP
NATIONAL WEATHER SERVICE WILMINGTON, OH
500 AM EST THU MAR 05 2015

NOTE: "FAIR" INDICATES FEW OR NO CLOUDS BELOW 12,000 FEET WITH NO
SIGNIFICANT WEATHER AND/OR OBSTRUCTIONS TO VISIBILITY.

OHZ001>008-015>018-024>027-034-035-043-044-051100-
   NORTHWEST OHIO

CITY           SKY/WX    TMP DP  RH WIND       PRES   REMARKS
DEFIANCE       MOCLDY    14   0  53 N7        30.32S WCI   4
FINDLAY        CLOUDY    16   1  51 N14       30.26S WCI   2
TOLEDO EXPRESS MOCLDY    13   1  59 N7        30.31R WCI   3
TOLEDO EXEC    MOCLDY    15   0  51 N9        30.30S WCI   3
LIMA           CLOUDY    16   2  54 N12       30.26S WCI   3
$$

OHZ009>014-019>023-028>033-038-089-051100-
   NORTHEAST OHIO

CITY           SKY/WX    TMP DP  RH WIND       PRES   REMARKS
CLE-HOPKINS    CLOUDY    15   2  56 N17       30.29R WCI  -1
CLE-LAKEFRONT  CLOUDY    16   5  62 N16       30.27R WCI   1
CUY CO. ARPT   NOT AVBL
LORAIN-ELYRIA  CLOUDY    14   3  61 NE15      30.27R WCI  -1
ASHTABULA      CLOUDY    13   0  56 N7        30.24R WCI   3
AKRON-CANTON   CLOUDY    16   1  51 N13       30.20R WCI   2
WOOSTER        CLOUDY    15   4  61 N12       30.22R WCI   2
MANSFIELD      CLOUDY    15   4  61 N12       30.21R WCI   2
YOUNGSTOWN     FLURRIES  14   5  67 N14       30.19R WCI  -1
$$

OHZ042-051>053-060>062-070>072-077>081-051100-
  SOUTHWEST OHIO

CITY           SKY/WX    TMP DP  RH WIND       PRES   REMARKS
CINC-COVINGTON LGT SNOW  19  10  68 NE12      30.24S FOG     WCI   7
CINC-LUNKEN    LGT SNOW  18  13  80 NE8       30.30R WCI   8
HAMILTON       CLOUDY    20   8  60 N8        30.28S WCI  10
DAYTON         CLOUDY    19   6  57 N14       30.26R WCI   6
WRIGHT-PAT AFB CLOUDY    19   5  56 N13       30.26R WCI   5
DAYTON GENERAL CLOUDY    19   5  54 N13       30.24R WCI   6
WILMINGTON     LGT SNOW  16  10  77 N13       30.22F WCI   2
$$

OHZ036-037-039>041-045>050-054>059-063>069-073>076-082>088-051100-
  CENTRAL AND SOUTHEAST OHIO

CITY           SKY/WX    TMP DP  RH WIND       PRES   REMARKS
COLUMBUS       CLOUDY    18   5  57 N13       30.23R WCI   5
OSU AIRPORT    CLOUDY    17   4  56 N13       30.24R WCI   4
BOLTON FIELD   CLOUDY   N/A N/A N/A N15       30.24F
RICKENBACK AFB LGT SNOW  17  10  75 N13       30.24S WCI   3
NEWARK         LGT SNOW  18  11  74 VRB3      30.22R
MARION         CLOUDY    16   3  56 N12       30.25R WCI   3
LANCASTER      LGT SNOW  17  13  84 N10       30.23S VSB 1   WCI   5
ZANESVILLE     LGT SNOW  17  13  84 N6        30.22R VSB 1   WCI   9
NEW PHILLY     CLOUDY    20   6  55 N7        30.22R WCI  11
$$



USA.gov is the U.S. government's official web portal to all federal, state and local government web resources and services.